CW5229 Weather Reports


Display with metric or nautical units.
time (UTC)temp
F
wind
direction
speed
MPH
gust
MPH
rain 1hr
in
rain 24hr
in
rain mn
in
humidity
%
barometer
mb
20260905163042 84 80 2.0 7.0 0.00 0.00 0.00 75 1012.2
20260905161542 84 49 3.0 8.0 0.00 0.00 0.00 76 1012.1
20260905160040 84 84 2.0 8.0 0.00 0.00 0.00 76 1012.1
20260905154540 83 56 3.0 9.0 0.00 0.00 0.00 77 1011.9
20260905153039 83 94 1.0 7.0 0.00 0.00 0.00 78 1011.9
20260905151538 83 276 2.0 10.0 0.00 0.00 0.00 77 1011.8
20260905150037 83 62 3.0 7.0 0.00 0.00 0.00 79 1011.7
20260905144544 82 12 1.0 9.0 0.00 0.00 0.00 81 1011.5
20260905143037 81 15 1.0 6.0 0.00 0.00 0.00 83 1011.3
20260905141534 83 72 1.0 4.0 0.00 0.00 0.00 81 1011.2
20260905140034 82 58 2.0 4.0 0.00 0.00 0.00 82 1011.1
20260905134537 81 354 2.0 5.0 0.00 0.00 0.00 84 1011.4
20260905133028 80 99 1.0 4.0 0.00 0.00 0.00 85 1011.4
20260905131527 78 314 0.0 3.0 0.00 0.00 0.00 88 1011.1
20260905130024 77 92 0.0 3.0 0.00 0.00 0.00 89 1011.0
20260905124524 77 68 0.0 5.0 0.00 0.00 0.00 89 1010.8
20260905123051 77 56 0.0 3.0 0.00 0.00 0.00 90 1010.8
20260905121520 76 22 0.0 2.0 0.00 0.00 0.00 90 1010.6
20260905120049 0 0.0 0.0 0.00 0.00 0.00 1010.4
20260905114547 0 0.0 0.0 0.00 0.00 0.00 1010.2
20260905113010 0 0.0 0.0 0.00 0.00 0.00 1010.0
20260905111506 0 0.0 0.0 0.00 0.00 0.00 1009.9
20260905110059 0 0.0 0.0 0.00 0.00 0.00 1009.8
20260905104556 0 41 0.0 0.0 0.00 0.00 0.00 1009.7
20260905103059 76 49 0.0 0.0 0.00 0.00 0.00 92 1009.9
20260905101553 76 49 0.0 1.0 0.00 0.00 0.00 92 1010.0
20260905100029 76 47 0.0 1.0 0.00 0.00 0.00 92 1010.0
20260905094523 76 46 0.0 0.0 0.00 0.00 0.00 92 1009.9
20260905093121 76 46 0.0 0.0 0.00 0.00 0.00 92 1009.9
20260905091554 76 46 0.0 3.0 0.00 0.00 0.00 92 1009.9
20260905090047 76 13 0.0 0.0 0.00 0.00 0.00 91 1009.8
20260905084553 77 12 0.0 0.0 0.00 0.00 0.00 91 1009.8
20260905083041 77 12 0.0 0.0 0.00 0.00 0.00 90 1009.8
20260905081541 78 12 0.0 0.0 0.00 0.00 0.00 89 1009.8
20260905080108 78 12 0.0 0.0 0.00 0.00 0.00 89 1009.8
20260905074537 78 12 0.0 1.0 0.00 0.00 0.00 89 1009.7
20260905073037 78 12 0.0 0.0 0.00 0.00 0.00 90 1009.6
20260905071535 78 12 0.0 0.0 0.00 0.00 0.00 89 1009.6
20260905070040 78 12 0.0 0.0 0.00 0.00 0.00 89 1009.6
20260905064532 78 11 0.0 0.0 0.00 0.00 0.00 88 1009.7
20260905063030 79 11 0.0 0.0 0.00 0.00 0.00 88 1009.8
20260905061530 79 11 0.0 1.0 0.00 0.00 0.00 88 1009.9
20260905060042 79 18 0.0 1.0 0.00 0.00 0.00 88 1010.1
20260905054525 78 20 0.0 3.0 0.00 0.00 0.00 89 1010.2
20260905053023 79 49 0.0 0.0 0.00 0.00 0.00 89 1010.2
20260905051525 79 49 0.0 0.0 0.00 0.00 0.00 88 1010.1
20260905050025 80 49 0.0 0.0 0.00 0.00 0.00 88 1009.9
20260905044521 80 49 0.0 0.0 0.00 0.00 0.00 88 1010.0
20260905043017 80 49 0.0 0.0 0.00 0.00 0.00 87 1010.4
20260905041516 80 49 0.0 0.0 0.00 0.00 0.00 88 1010.4
20260905040014 81 279 0.0 1.0 0.00 0.00 0.00 87 1010.3
20260905034514 81 279 0.0 0.0 0.00 0.00 0.00 85 1010.3
20260905033008 82 279 0.0 0.0 0.00 0.00 0.00 85 1010.6
20260905031509 82 279 0.0 0.0 0.00 0.00 0.00 83 1010.6
20260905030006 83 279 0.0 0.0 0.00 0.00 0.00 82 1010.6
20260905024535 83 279 0.0 0.0 0.00 0.00 0.00 82 1010.5
20260905023034 83 279 0.0 0.0 0.00 0.00 0.00 81 1010.4
20260905021504 84 279 0.0 0.0 0.00 0.00 0.00 80 1010.3
20260905020004 84 279 0.0 0.0 0.00 0.00 0.00 81 1010.3
20260905014503 84 279 0.0 0.0 0.00 0.00 0.00 80 1010.3
20260905013102 84 279 0.0 0.0 0.00 0.00 0.00 79 1010.0
20260905011617 85 279 0.0 0.0 0.00 0.00 0.00 79 1009.7
20260905010059 86 279 0.0 0.0 0.00 0.00 0.00 76 1009.5
20260905004557 87 279 0.0 1.0 0.00 0.00 0.00 75 1009.6
20260905003059 88 260 0.0 1.0 0.00 0.00 0.00 73 1009.5
20260905001607 89 264 0.0 0.0 0.00 0.00 0.00 72 1009.4
20260905000057 89 280 0.0 1.0 0.00 0.00 0.00 70 1009.6
20260904234554 90 260 0.0 1.0 0.00 0.00 0.00 69 1009.6
20260904233105 91 169 0.0 3.0 0.00 0.00 0.00 68 1009.7
20260904231552 92 261 0.0 1.0 0.00 0.00 0.00 66 1009.7
20260904230052 92 236 0.0 4.0 0.00 0.00 0.00 64 1009.6
20260904224550 93 258 0.0 5.0 0.00 0.00 0.00 62 1009.6
20260904223049 92 240 0.0 7.0 0.00 0.00 0.00 64 1009.5
20260904221550 93 328 1.0 6.0 0.00 0.00 0.00 63 1009.4
20260904220100 94 150 1.0 6.0 0.00 0.00 0.00 62 1009.3
20260904214538 95 175 2.0 5.0 0.00 0.00 0.00 60 1009.3
20260904213036 95 217 1.0 4.0 0.00 0.00 0.00 63 1009.2
20260904211533 95 257 1.0 5.0 0.00 0.00 0.00 64 1009.4
20260904210031 94 307 1.0 5.0 0.00 0.00 0.00 66 1009.7
20260904204530 94 217 0.0 5.0 0.00 0.00 0.00 64 1010.0
20260904203022 94 163 0.0 5.0 0.00 0.00 0.00 66 1010.0
20260904201517 93 279 1.0 6.0 0.00 0.00 0.00 66 1010.1
20260904200022 93 224 1.0 4.0 0.00 0.00 0.00 67 1010.3
20260904194512 93 182 1.0 5.0 0.00 0.00 0.00 66 1010.5
20260904193004 93 139 1.0 6.0 0.00 0.00 0.00 65 1010.9
20260904191557 92 108 1.0 4.0 0.00 0.00 0.00 66 1011.1
20260904190053 91 354 2.0 6.0 0.00 0.00 0.00 68 1011.2
20260904184549 90 134 1.0 6.0 0.00 0.00 0.00 69 1011.4
20260904183014 89 98 1.0 9.0 0.00 0.00 0.00 71 1011.8
20260904181513 88 89 3.0 11.0 0.00 0.00 0.00 71 1012.3
20260904180010 86 103 3.0 9.0 0.00 0.00 0.00 74 1012.8
20260904174507 84 101 4.0 11.0 0.00 0.00 0.00 75 1013.0
20260904173118 83 86 4.0 11.0 0.00 0.00 0.00 77 1013.4
20260904171604 83 39 5.0 11.0 0.00 0.00 0.00 77 1013.7
20260904170022 85 60 2.0 10.0 0.00 0.00 0.00 78 1013.7
20260904164521 86 79 3.0 10.0 0.00 0.00 0.00 75 1013.6